Theta_e
350 349 340 335 335 335 335 335 334 333 333 333 335 336 336 336 335 335 335 333 332 330 329 327 317 310 311 313 316 319 321 324 326 328 331 333 334 336 338 339 340 340 340 339 339 339 338 338 338 337 337 337 336 336 336 335 336 336 335 335 335 335 335 335 335 335 335 335 335 335 335 335 334 333 328 325 325 319 317 322 321 313 308 310 310
350 349 340 335 336 335 335 335 333 333 332 333 335 336 336 336 335 335 334 332 331 328 328 324 314 309 311 312 316 319 321 324 326 328 331 334 336 338 339 340 340 340 340 340 340 339 338 338 338 338 337 337 336 336 336 336 335 335 335 335 335 335 335 335 335 334 334 334 334 334 334 334 332 329 323 322 323 317 312 315 317 313 309 309 309
350 348 340 335 337 336 335 335 333 332 332 333 334 335 335 335 335 335 333 332 330 327 326 320 311 310 311 313 315 318 321 324 326 329 333 337 338 338 339 340 340 340 339 340 339 339 338 338 337 337 337 337 337 336 336 335 335 335 335 335 335 335 335 334 334 333 331 332 332 333 332 329 324 321 317 317 316 314 312 310 310 311 310 308 307
350 348 340 336 337 336 335 335 333 331 331 332 333 334 335 335 335 334 332 330 327 325 324 315 310 310 311 312 315 318 320 323 326 331 336 338 338 339 339 340 340 340 340 339 339 339 338 338 338 338 337 337 338 337 337 336 335 335 335 335 335 336 335 334 333 328 327 330 332 332 332 324 314 313 312 312 311 310 309 308 307 307 309 309 307
349 348 342 336 337 336 335 335 332 329 330 331 333 334 334 334 333 332 331 328 324 323 320 311 310 310 311 312 314 317 320 323 326 333 337 338 339 340 340 340 340 340 340 340 339 339 339 339 339 338 338 338 338 337 336 335 334 333 333 333 334 334 334 333 328 323 326 332 332 332 333 327 315 312 310 309 309 308 308 307 307 308 311 313 309
350 348 341 337 337 336 335 335 331 327 328 331 332 332 333 332 332 331 328 325 322 320 314 310 310 310 311 312 313 316 319 322 326 334 338 338 340 340 340 340 340 339 339 339 339 339 339 339 339 338 338 338 337 335 334 332 331 330 329 328 327 325 325 323 321 325 330 331 331 331 332 329 323 316 308 308 308 307 308 307 311 313 313 313 309
349 347 342 341 339 336 335 333 327 324 327 329 330 330 331 331 330 328 324 322 320 315 311 310 310 310 311 311 313 315 318 321 325 332 337 338 339 340 340 340 340 339 339 339 339 339 338 338 338 337 336 336 335 334 332 329 325 321 319 318 316 314 313 312 320 330 332 331 332 332 331 329 325 317 307 308 310 310 310 309 313 315 312 311 309
348 346 344 343 340 336 335 330 323 322 325 326 326 327 327 327 326 323 321 319 316 311 310 310 310 311 311 311 313 315 317 320 324 331 336 338 338 339 339 339 339 339 339 339 338 338 338 338 337 336 335 334 334 332 327 321 315 311 310 309 309 309 308 312 323 330 330 330 331 330 331 329 321 311 307 308 310 311 311 311 311 311 310 310 309
347 346 344 344 340 335 334 326 319 319 322 322 322 323 322 322 321 320 318 315 312 310 310 310 311 311 311 311 313 315 316 318 323 328 333 336 337 338 339 339 339 339 338 337 337 336 337 336 335 334 333 333 331 325 317 313 309 309 308 308 308 308 312 321 329 330 330 331 331 330 330 328 316 307 309 308 309 310 311 311 309 309 309 309 310
347 346 345 345 339 335 332 322 317 318 319 319 319 319 319 318 318 317 315 312 311 310 310 310 311 311 312 312 313 315 315 316 320 325 331 334 335 336 337 338 337 338 337 335 334 333 333 332 331 329 327 326 322 316 311 310 309 309 308 308 309 310 317 326 331 331 332 330 326 325 325 322 312 308 309 308 309 310 310 310 309 309 310 310 310
347 346 346 345 338 335 329 318 317 318 318 318 318 317 316 316 315 315 313 312 310 310 310 310 311 312 313 313 313 314 314 315 317 321 328 333 333 333 334 334 333 336 336 333 330 329 329 327 326 322 318 316 313 311 309 309 309 309 309 309 311 317 324 328 330 330 331 327 321 319 317 314 309 309 309 309 310 309 310 310 310 310 310 311 310
347 346 347 344 336 335 326 316 317 318 318 317 317 317 315 314 313 313 313 311 310 310 310 310 311 312 313 314 314 314 315 315 315 319 324 328 328 329 330 330 332 334 333 330 328 327 327 325 322 317 313 312 311 310 309 309 308 309 309 310 315 324 330 331 331 332 332 330 330 327 318 311 310 310 310 310 311 311 312 311 311 311 310 311 311
347 347 348 342 335 336 325 316 317 317 317 316 316 317 315 315 314 314 313 311 310 310 310 310 311 312 313 313 314 314 314 314 314 317 321 324 325 326 327 327 330 331 330 328 326 326 325 322 318 314 312 311 310 309 309 309 309 309 309 310 317 327 332 333 333 333 333 333 333 327 317 313 312 312 312 312 312 312 312 312 312 311 311 311 312
348 348 347 341 335 336 327 317 317 317 317 316 315 316 316 316 315 315 313 312 311 311 311 310 311 311 312 313 314 314 313 313 313 315 319 322 324 326 325 326 328 329 329 326 323 322 320 318 316 314 311 309 309 309 309 309 309 309 310 312 318 327 331 333 333 334 334 333 331 322 314 314 313 313 313 313 313 313 312 312 312 311 312 311 311
349 348 346 340 335 336 331 322 318 318 318 317 315 314 315 315 315 315 314 313 312 312 311 311 311 312 312 313 314 314 313 312 312 313 316 321 324 324 324 325 327 328 326 322 319 319 318 317 316 313 309 309 309 309 309 309 310 310 311 315 321 329 332 333 333 333 333 333 331 323 314 313 313 313 313 313 313 312 312 312 312 312 312 312 311
349 347 345 340 336 336 334 328 321 319 319 318 317 315 313 314 314 314 314 314 313 313 312 312 312 313 313 314 314 314 313 312 312 312 314 318 322 323 324 325 326 327 324 320 319 319 319 318 316 312 309 310 309 310 310 310 310 311 312 316 323 330 332 333 333 333 333 333 329 319 313 313 313 313 312 312 312 312 312 312 312 312 311 312 312
349 347 345 341 337 336 336 333 326 321 320 320 319 318 315 314 313 313 313 313 314 313 313 313 313 313 313 313 314 313 313 312 312 312 313 316 320 323 323 323 326 326 323 322 322 321 320 320 316 313 310 309 309 310 310 310 311 311 313 315 320 328 332 334 334 334 334 333 329 317 312 313 312 312 312 312 312 312 312 312 312 311 311 311 312
348 346 346 343 339 337 337 336 331 324 321 321 322 322 319 316 315 314 313 313 313 313 313 313 313 313 313 313 314 314 314 313 312 312 313 315 318 321 322 322 324 325 324 323 324 323 322 321 318 315 312 309 310 310 310 311 311 311 312 315 318 323 330 333 333 333 332 334 330 317 311 312 311 312 311 312 311 311 311 311 311 310 311 311 311
348 346 345 345 342 340 339 337 334 329 324 322 322 325 323 320 320 319 319 318 317 317 317 316 314 313 313 313 315 317 317 314 313 312 312 314 317 319 322 322 323 324 324 324 325 325 325 323 320 318 315 312 310 309 310 310 310 311 311 314 318 322 328 332 333 332 333 334 325 311 310 311 310 311 310 311 311 311 311 310 310 310 310 310 310
348 347 346 345 344 343 342 339 337 334 332 329 324 325 325 323 323 324 324 324 324 324 323 321 318 316 314 315 321 326 325 321 317 314 313 314 316 318 320 322 322 323 323 324 324 325 326 326 323 320 318 316 312 310 309 309 310 309 309 314 318 324 331 333 332 332 331 326 316 308 310 310 310 310 309 310 309 309 309 309 309 309 309 309 309
347 346 346 344 343 343 343 342 340 338 337 336 331 327 327 326 325 326 327 327 328 327 325 323 320 319 317 320 328 333 333 331 328 323 317 314 314 315 318 321 323 322 322 323 324 324 325 326 325 323 321 319 317 315 312 310 310 308 311 313 315 324 331 333 331 331 329 317 308 310 310 309 310 309 309 309 309 309 308 308 308 308 308 308 307
346 346 345 344 343 342 343 341 340 340 339 338 336 333 328 329 329 327 328 330 330 328 326 325 323 322 323 328 334 336 336 336 335 332 327 321 316 314 315 318 323 324 323 323 324 324 324 326 326 325 324 322 320 319 318 315 312 311 313 312 318 326 330 333 332 333 332 317 308 310 310 311 311 310 310 309 309 309 309 308 308 308 308 307 308
346 345 344 343 343 342 341 341 340 340 340 339 338 337 332 333 335 332 330 331 332 331 332 333 331 329 330 334 337 337 337 336 336 335 334 329 320 317 315 314 319 324 326 325 325 325 324 325 326 326 325 324 323 323 322 320 317 315 316 319 327 329 327 332 332 332 329 314 309 311 310 312 311 311 310 309 309 308 309 308 308 308 307 308 308
346 345 344 343 344 342 341 340 340 339 339 339 338 338 336 335 337 336 333 333 333 334 337 339 337 335 335 337 337 336 336 335 335 336 336 333 325 321 319 315 314 318 325 327 327 326 325 325 326 327 325 325 330 331 328 325 320 317 323 328 330 329 330 333 332 332 328 313 312 313 311 312 311 312 311 311 311 308 309 308 308 308 308 308 307
346 345 344 343 343 342 341 339 339 339 339 340 339 338 337 337 337 337 336 336 336 336 338 339 339 337 336 337 337 336 335 332 331 334 336 335 331 326 323 319 314 314 320 326 328 328 325 325 324 324 326 330 335 336 334 330 326 325 330 331 329 331 334 333 332 333 328 316 316 315 314 314 312 312 311 311 311 309 309 308 308 307 307 308 307
344 343 343 343 342 341 340 338 339 339 338 339 339 338 338 338 338 338 338 338 337 337 338 339 338 337 336 336 336 336 334 330 329 333 334 334 334 332 329 324 319 315 315 325 331 330 329 330 325 322 329 335 337 336 335 332 331 332 332 330 330 333 333 332 332 332 327 319 319 319 317 316 313 313 312 310 309 308 307 307 308 307 307 308 308
343 343 343 342 342 340 339 338 339 338 339 339 339 339 338 338 339 339 338 338 337 337 338 339 338 337 336 336 336 335 333 332 332 334 333 333 336 336 334 331 329 323 319 328 333 330 331 334 330 328 333 336 336 336 334 332 332 333 332 331 332 333 332 332 331 331 329 323 320 321 320 317 315 313 311 309 308 307 307 307 308 308 309 311 312
343 342 342 342 342 341 340 339 339 338 339 338 337 337 338 338 338 337 337 337 338 338 338 338 338 337 336 335 335 335 334 334 334 334 333 334 336 335 335 335 334 330 326 330 333 331 333 335 334 334 335 336 335 335 333 332 332 332 333 332 333 332 332 332 331 331 331 327 322 320 320 318 315 312 309 308 308 308 309 309 310 312 313 315 316
342 342 342 342 342 340 340 341 340 339 339 336 335 337 337 338 337 336 336 337 338 338 338 338 337 336 336 335 335 335 335 334 333 333 333 334 336 334 334 335 335 334 329 327 331 332 332 334 336 335 336 335 335 335 333 332 331 332 333 333 332 333 331 331 331 330 330 330 326 320 319 318 315 312 309 309 309 310 311 313 314 316 317 318 319
340 341 342 342 341 340 340 341 340 339 338 336 336 337 337 337 336 335 335 336 337 336 336 337 336 334 335 336 335 335 335 334 333 334 333 332 334 333 332 334 335 335 332 328 330 333 331 332 335 335 335 335 335 334 333 332 331 332 333 333 332 332 331 330 331 330 330 330 329 324 318 316 313 312 311 311 312 313 314 316 317 318 319 320 320
339 340 341 342 341 340 339 339 339 338 337 336 335 335 335 335 334 332 332 333 336 336 334 335 335 332 333 335 334 335 334 333 333 333 333 332 333 330 329 334 335 335 334 331 330 332 332 331 332 334 335 335 336 334 332 331 331 332 333 332 331 331 331 331 332 332 331 331 329 324 316 313 313 312 313 314 314 316 317 318 319 320 321 321 321
340 340 341 341 339 339 337 336 337 337 337 337 335 334 333 333 332 331 332 333 336 336 334 335 334 332 333 334 334 334 334 333 333 332 332 331 332 330 330 334 335 335 335 333 331 331 332 332 330 332 334 334 335 333 331 331 332 333 333 332 332 331 330 330 332 332 332 331 329 326 318 312 313 314 315 315 316 318 320 322 322 323 323 323 323
340 340 340 339 338 337 336 335 335 336 337 337 335 334 334 332 332 333 336 337 336 335 336 336 335 333 333 334 333 332 332 332 332 332 331 330 331 330 331 334 335 335 335 334 333 331 331 332 328 326 329 331 332 331 330 330 331 332 333 333 332 331 329 329 331 332 332 331 330 330 325 318 317 317 316 316 317 320 324 326 326 327 327 326 327
340 339 338 339 339 338 338 337 336 335 336 336 335 335 334 334 335 337 338 336 335 336 337 338 336 333 333 332 330 329 330 330 330 329 329 328 329 329 331 334 335 335 335 333 333 331 331 333 330 325 324 328 330 329 330 330 329 331 333 333 332 331 330 330 333 333 332 331 330 330 329 327 326 323 320 319 320 323 327 328 328 329 329 328 328
341 340 339 339 338 338 337 337 337 336 336 336 336 336 335 336 338 338 336 335 334 334 335 336 335 334 334 333 331 330 329 329 329 328 328 327 328 329 328 331 333 335 335 333 332 332 332 333 333 330 327 327 329 329 330 331 329 331 333 333 333 333 331 333 334 333 332 331 330 330 330 331 330 328 326 323 323 325 326 327 328 329 329 329 328
341 340 339 338 337 336 335 336 336 336 337 337 336 337 336 336 337 336 335 335 334 333 334 334 334 334 335 334 332 332 331 331 330 329 329 329 329 328 327 327 328 331 334 334 333 333 333 332 332 331 329 327 329 330 330 331 331 331 332 332 334 334 333 334 334 333 333 331 330 330 331 331 331 330 329 326 326 327 326 326 327 328 328 328 328
341 340 339 338 338 336 335 336 337 336 336 337 337 338 337 337 336 335 335 335 334 335 335 334 334 335 336 335 332 332 333 333 332 331 331 330 329 328 327 326 326 328 330 331 332 333 333 332 332 330 328 328 329 330 330 331 332 332 332 332 333 334 333 334 333 332 333 331 330 331 330 331 332 330 329 328 328 328 326 326 327 327 326 327 327
341 340 339 338 339 338 337 337 336 336 336 336 336 336 337 336 335 334 334 334 334 335 335 335 335 335 335 335 333 333 334 333 332 332 332 331 330 329 328 327 327 329 330 329 330 330 331 332 333 330 329 330 330 330 330 331 333 333 333 332 330 332 332 332 332 331 332 331 331 331 330 331 331 330 329 328 329 329 327 325 326 325 323 324 326
340 340 340 339 339 339 338 337 337 337 337 336 335 336 337 337 336 335 334 333 333 334 335 335 335 335 335 335 335 334 334 333 331 331 332 332 331 330 330 329 328 330 331 330 329 328 329 332 331 330 330 331 331 331 329 330 333 333 333 332 329 330 330 329 330 330 330 331 331 331 331 331 331 331 330 329 329 329 327 327 325 324 323 321 322
339 339 339 339 339 339 339 339 339 339 339 338 338 337 338 338 337 336 333 332 333 335 335 335 335 335 335 335 335 334 334 333 331 330 331 332 333 332 331 330 330 331 331 330 330 329 330 330 330 330 331 329 330 330 328 329 332 332 334 333 328 330 330 327 328 329 330 330 330 331 331 331 331 330 330 329 329 329 328 328 326 326 327 321 320
339 339 339 339 339 339 338 339 339 339 339 339 339 338 338 338 337 336 333 331 333 335 336 335 335 334 335 334 334 334 333 333 333 331 331 332 332 332 332 332 332 332 331 331 331 330 330 330 329 329 329 328 328 329 329 329 331 333 334 332 328 331 332 329 328 328 328 328 329 330 331 331 331 330 330 330 330 330 328 328 327 328 328 323 320
339 339 340 339 338 338 338 338 337 337 338 338 338 338 337 337 337 335 334 333 333 334 336 337 335 334 334 333 333 332 331 332 333 332 332 332 332 332 333 333 333 333 333 332 332 331 331 330 328 327 329 328 328 328 328 329 331 333 332 330 329 329 329 329 330 329 327 328 328 330 331 331 331 330 330 331 330 329 328 327 327 327 328 327 323
339 339 339 338 338 338 338 338 337 337 337 337 338 338 336 337 337 335 334 334 333 333 336 337 335 333 333 333 333 333 333 333 334 333 332 332 333 333 333 333 333 333 333 333 332 332 331 331 328 328 329 329 328 328 328 328 330 332 330 329 329 328 328 328 328 328 328 329 329 330 331 330 330 330 331 330 328 329 328 328 327 325 326 328 327
338 338 338 338 337 338 337 337 337 337 337 336 337 338 337 337 337 336 335 334 334 334 334 335 334 333 332 332 333 333 334 333 333 333 333 333 333 334 334 334 333 332 332 332 332 332 332 331 330 329 330 329 328 328 328 328 329 330 329 328 329 328 329 328 328 328 328 329 329 330 330 330 329 330 330 330 329 329 329 329 327 325 324 327 328
336 335 336 336 336 336 336 336 336 337 337 337 337 337 337 337 337 336 335 334 334 334 334 335 335 333 332 332 333 332 333 332 331 331 332 334 334 334 334 333 333 333 332 332 332 332 332 332 331 331 330 330 329 327 327 327 327 328 328 328 328 328 329 329 329 330 329 328 329 329 330 330 329 329 329 329 329 329 329 328 327 324 323 325 328
334 334 334 334 334 335 335 335 335 336 336 337 337 337 336 337 337 337 336 335 335 334 333 334 336 335 333 332 333 332 332 332 331 331 332 333 333 333 333 333 333 333 333 332 332 332 332 332 331 331 331 330 329 327 327 328 327 327 328 328 327 326 328 329 330 330 329 328 328 329 329 329 328 328 329 328 328 329 329 328 326 324 323 325 328
332 332 332 332 332 333 333 333 333 334 335 336 336 337 336 336 337 336 336 335 335 334 333 332 334 336 335 333 333 333 331 331 331 332 332 330 331 332 332 333 333 333 333 333 332 332 332 332 332 332 332 331 329 327 327 328 329 328 327 328 327 325 325 327 328 329 329 329 329 329 330 330 328 327 328 328 328 329 329 328 327 325 324 325 326
331 331 331 331 331 331 332 332 332 332 333 333 334 335 336 337 337 336 336 335 334 334 334 332 333 334 334 333 334 334 333 332 332 332 331 329 330 332 332 333 334 334 334 333 332 332 332 332 331 331 332 331 329 328 327 328 328 328 328 328 328 326 325 325 327 328 329 330 329 329 330 329 328 327 327 328 328 329 329 328 327 327 325 324 325
329 329 330 330 330 330 330 331 331 331 332 332 332 333 334 336 337 337 336 335 335 335 335 334 333 333 333 333 333 332 332 332 331 331 330 329 331 333 333 333 334 334 334 333 333 333 331 330 330 331 331 331 330 328 328 328 328 328 329 328 327 327 327 327 327 327 328 330 330 329 330 329 328 327 327 328 328 329 329 327 327 327 325 325 325
325 325 326 326 326 327 327 327 328 329 330 330 331 332 332 333 334 335 335 335 335 335 335 334 334 334 333 334 334 333 332 332 331 330 330 330 332 333 333 333 334 334 333 333 333 332 330 330 330 331 331 330 330 329 328 328 328 328 328 328 328 328 329 328 328 327 328 329 329 329 330 329 328 327 326 327 328 329 328 327 327 327 326 325 326
322 322 323 323 323 324 324 325 326 326 327 328 329 330 330 331 333 333 333 334 335 335 334 334 334 333 333 333 334 334 333 332 331 331 331 331 331 332 333 333 333 334 333 333 332 331 330 331 331 331 330 330 330 329 329 328 327 327 327 328 329 329 329 329 328 328 327 327 328 329 330 330 328 327 326 326 328 328 328 327 327 328 327 326 326
Wind_Speed
12 11 17 18 15 14 12 12 11 11 11 11 12 13 13 11 10 9 8 6 5 4 3 4 6 8 9 10 12 13 12 14 15 16 17 16 16 15 15 14 14 14 14 14 13 12 12 12 12 11 11 11 11 11 12 12 12 12 12 12 12 12 12 13 13 13 13 13 12 12 12 11 11 10 11 11 11 13 14 13 11 10 11 10 9
14 12 17 18 15 14 12 11 11 11 11 11 12 13 13 12 10 9 8 6 5 4 3 4 6 8 9 10 12 13 13 13 15 16 17 16 15 15 15 15 15 15 15 15 14 14 13 13 13 12 11 11 12 12 12 12 12 13 12 12 12 12 13 14 14 14 14 13 12 10 10 9 9 9 10 10 10 11 11 10 9 9 10 10 9
14 12 17 18 15 15 12 11 10 11 11 12 12 12 13 11 10 9 8 7 5 4 4 5 6 8 9 9 11 12 13 13 15 17 17 15 15 15 15 15 16 16 15 15 15 14 14 14 13 12 12 12 12 12 11 12 13 13 12 13 12 13 13 15 16 16 16 15 13 11 9 8 8 8 8 8 8 9 9 8 8 8 10 10 11
13 13 17 18 16 15 13 11 10 11 11 12 12 12 12 11 10 8 8 7 5 5 5 6 7 8 9 9 10 12 13 13 15 17 17 15 15 15 15 15 15 16 15 15 15 15 15 14 14 13 12 12 12 11 11 11 12 12 12 12 13 13 14 14 14 15 17 18 19 17 13 10 6 7 7 7 7 8 9 9 9 10 11 12 12
13 14 17 18 16 15 13 11 10 11 11 12 13 12 12 11 9 8 8 7 6 6 6 7 8 9 9 9 10 11 12 13 15 17 17 15 15 15 15 15 15 15 15 15 15 15 15 14 13 13 12 11 11 11 11 11 11 11 10 10 10 11 11 11 12 15 18 20 20 17 13 10 6 6 8 8 9 9 10 11 11 12 13 14 15
14 14 16 18 16 15 13 11 10 10 12 12 13 12 12 11 9 8 7 7 7 7 8 8 9 9 10 9 10 11 13 13 14 17 17 15 15 15 15 15 15 15 15 15 14 14 14 13 12 12 11 11 10 10 10 9 9 9 8 8 7 8 8 8 12 17 19 19 18 13 9 8 7 9 10 10 11 11 11 11 13 14 15 15 16
13 14 16 15 15 16 13 11 11 11 12 13 13 12 12 10 9 8 8 7 8 9 9 9 10 10 10 9 9 11 12 13 15 17 17 16 15 14 14 14 14 15 14 14 13 12 12 11 11 10 9 9 8 8 8 8 7 7 7 7 7 8 8 10 15 19 19 17 14 9 9 8 8 13 13 13 13 14 13 12 14 15 16 16 17
11 14 16 14 14 15 13 11 11 11 12 12 12 12 11 10 10 8 8 8 9 10 10 11 11 10 9 9 9 10 12 13 15 17 18 16 15 14 14 13 13 14 14 13 12 11 11 10 9 9 8 7 7 7 7 7 8 8 9 9 10 9 11 14 17 18 17 14 11 10 10 9 10 14 14 15 16 16 15 14 16 17 17 17 16
13 14 16 12 14 15 13 11 11 12 12 12 11 11 10 10 10 9 9 9 10 11 11 11 11 11 10 9 10 11 12 13 14 16 17 16 14 14 13 13 12 12 12 12 11 11 10 10 9 8 7 6 6 7 7 8 9 10 11 11 11 11 15 18 18 18 15 12 12 12 11 9 10 14 15 16 17 17 17 15 16 17 17 17 16
15 15 15 11 13 15 12 11 11 12 11 10 10 10 10 10 10 10 9 10 11 12 12 12 11 11 10 10 11 11 11 12 13 14 16 16 14 14 14 13 12 12 11 10 10 10 9 8 7 6 6 6 6 7 8 9 10 12 12 12 13 15 19 20 19 16 12 10 12 14 13 11 12 14 15 16 17 17 16 15 15 17 17 16 16
15 14 13 11 13 15 11 12 12 11 10 9 9 9 9 9 9 9 9 11 12 13 13 12 12 11 11 11 11 11 10 11 12 13 14 14 14 14 14 11 11 12 10 8 8 9 9 7 7 6 6 7 7 8 9 10 11 12 12 13 15 19 21 21 19 13 11 10 12 12 12 13 15 16 16 16 17 16 16 15 16 16 16 16 16
15 14 11 10 14 14 11 12 12 12 10 8 8 8 9 9 9 9 9 11 12 13 13 12 12 12 11 11 11 10 10 9 10 12 13 12 11 11 11 10 11 11 9 7 7 7 7 7 7 7 7 7 7 8 10 11 12 13 13 15 19 23 22 21 17 11 11 13 13 12 10 14 16 16 16 16 16 16 16 16 16 16 15 15 14
15 14 11 10 14 13 12 12 12 12 10 9 9 9 9 9 9 9 10 11 12 13 13 12 12 12 12 11 11 10 10 9 9 10 11 11 10 10 10 11 12 10 9 8 7 7 7 8 8 7 7 7 8 9 11 12 13 13 14 16 21 24 22 19 15 11 12 13 12 12 13 16 17 16 16 16 16 16 16 15 15 14 13 13 12
14 13 10 11 14 13 13 12 13 12 11 10 9 9 9 9 10 10 11 11 12 12 12 12 12 12 11 11 11 11 10 9 9 9 10 11 10 10 11 12 13 11 9 8 8 9 9 8 8 8 8 8 9 11 12 13 13 13 15 17 21 24 23 17 12 11 12 12 10 10 15 17 17 17 16 16 15 15 14 14 13 12 12 11 10
13 12 10 12 14 13 13 13 13 13 11 10 9 9 9 10 10 10 11 11 12 12 13 12 11 11 11 11 11 11 11 10 10 9 10 11 11 11 12 14 13 12 10 10 10 10 10 8 8 9 9 10 11 13 13 14 13 13 15 17 22 24 22 16 9 10 11 11 10 9 13 15 15 15 15 15 14 13 12 12 11 10 10 9 8
12 12 10 11 13 13 14 13 13 13 12 10 10 9 9 9 9 10 10 11 12 12 12 11 10 10 10 10 11 11 11 11 10 9 9 11 12 12 13 14 14 12 11 11 11 10 10 9 9 9 10 11 12 14 14 15 14 14 14 17 22 22 21 16 9 9 9 9 8 9 12 12 13 14 13 12 11 11 10 10 9 8 8 6 6
12 12 10 11 12 13 14 14 14 14 12 11 10 9 9 9 9 9 10 10 11 11 11 10 10 9 9 9 10 10 10 10 10 10 9 9 11 12 13 14 14 13 12 12 11 10 10 9 9 10 11 12 12 14 14 16 16 15 15 16 21 21 20 17 10 8 9 8 6 7 10 10 11 12 11 10 9 9 8 8 8 7 6 5 5
12 11 10 11 12 13 14 14 14 14 13 12 10 10 9 9 9 9 10 10 10 10 10 10 10 9 9 9 9 9 9 10 10 10 9 9 10 11 13 14 15 14 13 12 11 10 9 9 9 10 11 12 12 13 14 15 16 17 16 16 18 19 19 16 10 8 9 8 5 7 10 10 10 10 10 9 8 8 7 6 6 6 5 4 4
12 11 11 11 12 12 13 13 13 13 13 12 11 10 9 9 9 10 10 10 10 11 11 11 11 10 9 9 8 7 6 7 8 9 9 9 9 10 12 14 15 14 13 12 11 10 9 8 8 9 10 11 11 12 13 14 15 16 16 17 18 18 18 14 9 8 8 6 6 8 9 9 10 9 9 9 8 7 6 6 5 4 4 4 3
13 12 12 12 12 12 12 12 12 12 11 10 10 10 10 10 10 10 10 11 11 10 10 11 11 11 10 10 9 7 5 5 4 5 7 8 9 9 10 13 14 14 13 13 11 10 8 8 8 8 9 10 11 11 12 13 14 15 16 16 16 17 15 9 7 6 6 6 6 7 8 8 9 9 8 8 7 7 6 5 5 4 4 3 3
12 12 12 12 12 12 12 12 12 12 11 9 8 8 9 10 10 10 10 10 10 10 10 11 11 12 12 11 10 6 3 3 3 2 2 5 8 9 10 11 13 14 13 12 11 10 8 7 7 8 8 9 10 10 11 12 13 15 14 14 14 14 12 8 7 6 3 4 5 5 5 6 7 7 7 6 6 6 6 5 4 4 4 3 2
11 12 12 13 13 13 12 12 11 12 13 12 10 9 9 10 10 10 11 10 10 11 11 10 11 11 12 12 11 9 7 4 3 1 2 3 5 7 10 10 12 13 13 12 11 9 8 7 7 7 8 9 9 10 10 10 12 14 14 13 12 10 10 9 7 7 3 3 5 5 5 5 5 5 5 5 5 4 4 4 4 4 3 3 2
9 11 12 13 12 13 13 13 12 12 12 12 12 11 11 10 9 9 10 11 11 11 11 10 9 10 11 11 12 12 12 10 8 6 4 4 3 6 8 9 11 12 12 12 11 9 8 7 7 7 7 8 9 9 9 9 10 12 13 13 9 7 10 10 7 7 4 5 6 5 5 5 5 5 4 4 4 4 4 4 3 3 3 3 2
8 9 11 12 11 12 12 11 10 10 12 13 11 11 11 11 11 11 10 10 10 10 10 11 11 11 11 11 12 13 13 11 9 8 7 5 4 5 7 7 10 10 11 10 9 9 7 7 7 7 8 8 7 5 5 6 8 10 10 8 6 7 8 7 6 5 4 5 5 5 4 4 5 4 4 4 5 5 5 5 4 3 3 2 2
8 7 9 11 11 11 10 9 9 10 12 12 10 11 11 12 14 14 11 11 11 11 11 12 13 13 11 10 10 12 13 10 9 10 9 7 6 6 7 7 8 9 10 9 8 8 7 7 6 7 8 7 6 6 5 4 5 6 6 7 8 8 6 5 7 5 5 6 5 5 4 4 4 4 5 5 5 5 4 4 3 2 2 2 2
5 5 7 10 10 10 8 8 10 10 11 10 9 11 11 12 15 14 13 11 11 11 12 13 14 14 12 10 10 12 12 9 10 11 11 9 8 8 8 8 7 8 8 9 9 8 8 9 8 7 7 7 7 8 8 6 5 4 5 8 8 6 5 5 6 3 5 6 6 4 4 4 4 4 5 5 4 4 3 2 2 2 2 3 4
2 4 5 5 6 8 8 8 9 9 10 10 9 10 11 13 13 13 12 11 10 12 12 13 12 12 13 12 11 12 12 11 12 13 13 11 10 9 10 11 9 7 9 11 11 9 9 11 9 8 8 8 9 8 8 8 7 6 5 6 6 5 5 4 5 3 3 5 6 5 5 5 5 5 5 5 4 3 3 3 3 3 3 4 5
2 2 3 3 2 5 6 6 7 9 9 8 8 10 11 12 11 11 12 11 12 13 12 12 10 7 10 12 12 12 12 12 12 12 13 12 11 11 12 13 11 8 11 13 12 11 11 11 10 10 10 9 9 9 8 8 8 8 6 6 6 5 5 4 5 5 2 4 4 4 6 6 6 6 6 5 5 4 4 4 4 4 4 4 5
4 2 2 3 2 4 5 5 6 7 8 8 9 10 11 11 10 10 11 11 11 11 11 11 8 5 7 10 11 12 10 10 11 11 13 14 13 13 14 13 12 10 11 12 13 12 13 13 12 12 11 10 10 9 9 9 9 8 7 7 7 6 6 6 5 5 4 5 6 4 5 6 6 7 7 7 6 6 6 5 5 4 4 5 5
5 2 3 2 2 4 6 6 5 6 7 8 9 10 11 10 9 9 9 9 9 9 9 10 8 7 9 9 8 9 7 8 9 10 12 15 14 14 14 12 12 11 10 11 13 13 13 14 15 13 12 11 10 11 10 9 8 8 8 8 8 7 7 6 6 5 5 6 11 8 6 6 6 7 7 8 7 7 7 6 5 5 5 5 4
4 3 3 2 2 3 5 5 4 5 5 5 6 7 8 8 8 7 8 7 7 8 8 8 7 7 9 8 8 6 4 6 9 9 11 14 14 14 14 12 10 11 10 11 13 13 13 14 15 14 12 12 11 11 11 10 9 9 9 9 8 7 6 6 6 6 6 6 10 9 7 6 5 6 7 8 8 8 7 6 5 5 4 4 4
3 4 4 2 3 2 3 4 4 3 3 2 3 4 4 5 6 6 6 6 7 7 6 5 6 7 7 6 7 5 3 5 7 8 10 11 13 14 15 13 10 10 10 11 12 13 13 13 15 16 15 13 12 12 12 11 10 9 9 9 8 7 6 6 7 7 6 6 5 5 5 5 5 5 6 8 8 8 7 5 5 5 4 4 3
3 3 4 4 4 3 2 4 4 3 3 3 2 3 3 3 4 3 3 5 6 5 3 3 5 5 6 6 6 6 5 5 5 6 8 9 11 14 16 14 10 10 10 11 12 13 13 13 16 18 17 15 14 14 14 13 12 10 10 9 9 8 7 6 7 7 7 7 6 5 5 5 5 5 6 8 8 7 5 5 5 4 3 3 3
4 2 4 4 4 4 3 3 3 3 3 3 2 3 2 2 3 3 4 6 6 4 3 4 5 5 5 7 6 6 6 6 6 7 8 9 12 15 18 15 10 10 11 12 13 13 13 13 15 16 17 16 16 15 14 14 14 12 11 10 9 8 7 6 6 7 7 7 7 8 7 6 5 5 7 8 7 6 5 5 5 4 4 4 3
4 3 4 4 3 4 3 3 3 3 3 3 3 2 2 2 3 5 6 6 6 6 6 5 6 6 5 7 7 7 7 7 8 9 10 10 13 16 17 15 10 10 10 11 13 13 13 13 14 15 17 17 17 16 14 14 15 15 13 12 10 9 8 7 7 7 7 8 8 9 9 8 7 6 7 8 7 7 7 6 5 5 5 5 5
3 3 3 4 3 4 4 3 3 3 3 3 3 3 3 3 4 6 6 7 7 7 8 8 7 6 6 7 8 8 8 8 9 10 11 11 13 15 16 15 13 13 11 9 11 12 13 14 15 16 18 18 17 17 16 15 15 16 15 13 11 10 8 8 9 8 7 8 8 9 10 9 9 10 9 9 9 8 7 7 6 5 6 6 6
3 3 3 3 3 4 4 3 4 4 4 4 3 4 4 4 6 7 7 8 9 9 9 9 9 7 7 8 9 9 9 9 9 10 11 12 13 15 15 15 15 16 14 12 12 12 14 16 17 17 18 18 18 18 18 16 15 15 15 13 12 10 10 10 10 9 9 9 8 10 10 9 11 12 11 10 9 8 8 8 7 6 5 6 6
4 2 2 3 2 2 3 3 3 3 4 5 5 5 5 6 6 8 9 10 11 11 11 10 10 10 9 9 10 10 10 10 10 11 12 13 14 14 15 17 16 16 17 17 17 16 17 17 17 18 17 18 18 19 20 17 16 16 15 16 15 13 13 12 12 12 11 9 9 10 10 11 11 11 11 10 8 6 7 9 8 7 6 6 6
2 1 1 2 2 2 3 4 3 3 4 4 5 5 5 5 6 8 10 11 12 13 14 13 13 13 12 11 13 13 12 12 12 12 13 14 14 13 14 17 18 17 17 18 19 18 19 18 19 19 18 19 19 20 21 19 18 17 15 16 17 14 14 14 12 13 12 11 11 11 11 12 12 10 10 9 7 6 7 8 8 7 6 6 6
5 4 3 2 1 2 2 2 3 4 5 5 5 5 5 5 6 9 11 13 13 13 15 15 15 16 15 14 15 15 15 14 13 13 14 15 15 15 15 16 18 19 18 19 19 19 20 20 21 21 19 20 22 21 21 21 19 17 15 17 17 13 14 15 14 14 13 13 14 14 13 13 12 11 11 8 7 8 7 7 6 6 6 6 5
8 6 3 2 2 2 1 0 1 3 4 4 5 6 7 7 8 10 12 13 14 14 14 15 16 16 16 17 16 16 15 14 15 15 15 15 16 16 17 17 18 19 19 19 20 20 20 20 22 22 19 21 23 23 22 22 20 15 14 16 17 15 16 17 16 16 16 16 17 15 14 13 13 12 11 9 10 10 8 8 6 6 7 6 6
7 6 4 3 3 3 3 3 2 2 1 2 4 6 7 8 9 10 11 12 14 14 13 14 15 15 15 17 16 15 15 14 16 17 17 16 16 17 18 18 19 19 20 19 20 21 21 21 22 22 21 21 24 24 23 23 20 16 15 16 16 17 18 18 18 19 18 18 18 16 15 15 14 13 11 11 11 9 8 8 9 9 8 7 6
9 8 6 5 4 3 3 4 5 5 2 1 2 4 5 6 8 9 10 10 11 12 12 13 15 14 14 15 15 15 15 15 15 17 17 16 17 18 18 18 20 21 21 20 21 22 22 22 23 24 22 22 24 25 25 24 21 18 17 16 15 15 16 18 21 22 19 19 19 17 17 17 15 13 11 11 10 9 9 9 10 11 11 10 8
10 9 8 6 5 4 4 3 4 5 3 3 2 3 3 4 6 7 8 9 11 12 13 13 14 14 14 15 16 16 15 14 14 15 15 15 16 16 17 18 19 20 21 21 22 22 22 22 24 25 25 25 25 25 26 26 24 21 18 16 15 14 13 16 20 21 19 20 20 18 18 18 16 14 12 11 10 10 10 10 10 11 11 10 9
9 8 7 6 4 3 3 3 4 5 5 5 4 4 4 4 5 6 7 8 10 11 11 11 12 13 13 14 15 16 14 13 14 14 14 14 15 16 17 17 18 18 20 21 21 21 22 23 24 26 27 27 26 26 27 28 28 26 20 16 15 13 12 13 14 16 18 21 22 20 20 19 17 16 14 12 11 11 10 10 11 11 10 10 8
8 7 5 4 3 1 1 2 4 4 4 5 6 6 6 5 5 6 8 9 8 8 9 10 12 13 12 13 14 15 15 14 14 13 14 16 17 17 17 17 17 18 19 20 20 21 22 24 25 26 27 27 25 27 29 28 28 29 25 21 18 15 13 11 11 14 17 20 23 21 20 19 16 16 16 13 11 13 12 10 11 12 11 10 8
7 6 5 5 4 4 2 2 2 3 4 4 5 6 6 6 7 8 8 9 9 9 10 11 13 13 13 14 15 15 15 16 16 16 17 18 17 17 16 16 17 17 18 19 20 20 21 24 24 24 26 27 27 27 27 25 25 27 27 26 25 21 19 16 14 14 15 18 21 20 19 19 17 17 17 13 12 13 12 11 11 12 12 11 10
6 5 4 4 4 3 3 3 3 4 5 5 5 4 5 7 9 9 9 10 11 12 12 12 13 14 14 15 16 16 15 16 17 18 19 17 16 17 16 16 16 17 18 19 20 20 21 22 23 23 25 27 28 26 25 25 26 25 25 27 27 25 25 21 16 13 13 15 19 20 18 19 19 18 18 16 14 14 14 13 11 12 12 12 10
4 4 3 2 2 1 1 3 5 6 6 6 5 5 6 6 7 8 9 10 11 12 11 11 12 14 15 15 15 16 15 16 17 18 17 16 16 16 16 17 16 16 17 16 17 18 19 20 21 24 25 26 27 27 25 26 26 25 25 26 26 26 26 22 17 15 14 15 18 19 18 18 20 20 20 18 16 16 17 15 12 12 13 12 10
6 6 5 4 3 3 3 4 4 5 5 5 5 6 6 5 6 7 8 9 10 12 12 12 12 13 14 15 15 16 15 16 18 18 18 17 17 18 17 18 17 17 18 16 16 17 19 19 20 23 24 24 25 27 27 26 25 24 25 24 24 26 26 24 22 21 19 18 19 19 19 21 22 21 22 21 19 18 18 16 14 13 14 13 12
7 7 7 6 6 5 6 7 6 6 4 3 4 5 4 3 5 7 8 8 10 12 13 14 14 14 16 17 17 17 16 16 18 19 19 19 19 20 19 18 18 17 18 17 17 17 17 18 19 21 23 23 24 25 25 24 23 22 22 21 21 23 23 22 22 22 21 22 21 19 18 20 21 20 22 24 22 21 19 17 15 15 15 14 13
Wind_Direction
159 176 168 167 170 167 163 155 152 151 155 159 161 163 163 163 163 162 153 141 126 110 89 73 72 75 75 82 85 89 98 106 111 112 110 106 102 98 96 97 99 103 106 108 107 107 109 108 107 105 105 103 103 101 101 101 100 99 98 96 93 92 92 89 86 83 82 81 81 81 82 78 71 60 51 46 45 48 55 60 50 52 66 66 67
158 177 169 164 168 164 164 158 155 157 162 163 167 167 165 165 166 164 154 144 135 127 106 90 87 87 85 91 92 95 101 109 113 113 111 105 101 98 97 99 102 105 106 107 106 107 107 108 107 106 104 102 101 101 101 102 101 98 97 95 92 91 91 92 89 84 79 76 74 76 78 71 63 52 49 48 43 43 46 53 48 51 65 68 74
154 172 167 163 166 163 163 159 158 162 167 169 171 170 169 168 169 167 156 150 147 142 119 109 102 97 97 100 99 100 103 111 116 115 110 103 101 102 102 102 105 107 108 107 106 106 106 107 105 104 103 102 101 101 103 102 100 98 97 95 93 93 94 95 88 80 71 63 58 59 61 52 53 49 47 47 37 38 42 49 53 58 65 69 79
151 163 164 162 165 164 162 160 162 165 171 174 175 174 172 170 173 171 159 158 159 147 129 123 115 106 106 107 106 105 106 113 119 117 110 105 105 104 104 104 106 107 108 107 106 105 105 105 104 104 103 103 103 102 102 99 98 96 96 96 95 96 98 94 84 74 65 59 50 42 37 26 34 51 46 51 48 50 57 66 67 67 73 77 84
143 155 163 161 164 166 162 161 162 168 175 177 178 176 174 173 176 175 166 168 163 146 139 135 125 116 113 112 113 113 112 118 124 120 111 109 109 105 107 107 107 109 109 108 106 105 104 104 103 104 105 105 105 104 100 97 95 94 95 95 96 100 101 95 84 76 69 66 62 53 44 31 34 59 55 64 68 68 72 78 79 79 83 83 85
142 152 160 159 166 167 161 161 162 170 176 180 181 177 177 175 180 180 175 173 160 148 146 142 133 124 118 116 118 121 121 124 129 124 115 113 111 109 110 109 112 113 112 111 108 107 106 107 106 108 108 107 105 102 98 93 91 90 94 97 97 100 101 97 88 81 72 67 66 66 64 55 63 76 74 77 79 82 84 86 87 87 87 85 85
144 148 151 154 165 167 161 159 162 172 177 183 183 180 181 179 185 185 180 171 156 151 152 147 139 129 121 119 122 126 127 130 135 129 122 118 115 113 112 114 117 116 114 111 108 106 106 108 109 112 109 107 105 99 96 88 82 83 90 94 98 98 94 94 91 85 75 69 70 76 79 73 76 87 87 86 85 83 83 88 92 90 89 87 86
140 144 147 154 166 165 159 159 163 170 176 183 184 184 184 183 187 184 176 164 156 156 155 150 141 132 125 122 125 129 130 134 139 135 130 126 124 120 119 120 122 121 119 116 112 109 107 106 106 109 109 107 102 96 92 85 82 83 87 91 93 94 91 92 91 84 77 79 88 87 82 77 81 92 93 94 94 89 84 84 90 91 90 88 87
138 141 148 162 171 162 156 157 160 166 174 179 183 183 182 182 182 177 169 160 159 158 157 153 143 136 133 129 128 130 130 134 140 142 136 132 131 130 131 132 135 133 127 121 118 115 112 109 106 104 105 101 96 95 91 87 87 88 90 92 92 97 98 95 88 80 78 88 96 95 92 85 89 97 99 100 100 96 92 88 92 95 93 91 88
137 143 155 176 172 157 153 154 157 162 168 174 179 180 179 179 176 173 164 162 162 159 159 154 147 141 136 135 133 131 131 133 138 145 142 138 141 146 148 147 142 140 132 121 115 116 114 109 103 96 96 94 92 93 90 91 92 94 94 96 100 100 97 91 84 80 88 106 115 119 118 109 105 104 102 103 101 98 98 99 101 100 96 93 88
140 147 161 184 169 153 151 151 154 158 162 169 174 176 175 174 172 169 164 164 163 159 161 156 151 145 138 138 137 134 131 130 132 140 145 147 152 154 158 152 132 134 134 120 113 112 108 102 95 91 92 88 87 88 91 96 98 99 97 101 106 100 92 85 80 79 88 97 102 108 114 112 109 106 105 105 103 103 105 107 105 101 99 95 91
143 149 160 173 162 151 148 148 152 155 157 164 167 174 172 172 171 168 167 167 164 162 162 159 155 149 143 141 139 139 134 132 131 138 147 151 151 146 150 143 126 130 131 120 111 104 102 99 93 91 91 88 86 89 95 101 103 104 103 107 107 98 89 85 85 89 94 92 91 96 106 109 110 109 109 108 108 110 109 108 105 103 100 96 93
147 156 159 159 159 150 144 146 152 153 154 158 162 171 171 172 170 169 171 168 166 164 163 161 158 155 148 143 141 143 141 136 132 139 147 147 144 138 136 132 129 130 128 122 111 104 104 100 97 93 89 91 93 97 104 106 109 111 112 114 108 100 93 88 93 100 98 97 103 112 113 108 108 108 107 108 109 111 109 106 105 104 101 97 95
150 161 163 160 163 151 144 146 151 155 154 155 158 166 172 174 170 170 171 169 166 164 165 164 163 160 154 149 147 146 143 140 135 139 147 148 147 142 133 127 129 132 128 121 113 110 107 103 101 96 93 95 103 108 111 112 113 113 116 117 109 102 95 88 93 100 98 100 104 109 109 107 106 107 108 108 109 109 108 107 107 106 103 101 96
149 156 163 162 165 157 149 148 152 157 155 153 154 161 168 172 170 167 168 168 167 166 168 168 169 167 161 157 153 148 143 143 142 142 148 150 152 145 134 129 130 130 128 122 117 115 111 108 103 101 101 102 108 113 114 115 113 112 117 117 108 102 98 95 97 101 101 103 106 109 110 111 111 112 112 111 111 111 110 110 109 107 103 99 95
151 155 161 163 169 166 157 153 155 156 156 154 151 156 160 164 165 163 165 167 168 169 169 168 170 169 163 159 156 152 146 146 146 146 150 152 153 147 138 133 131 130 130 127 122 120 115 111 107 106 106 109 113 112 113 113 110 108 113 116 110 107 105 105 103 97 100 108 122 127 118 116 115 114 114 114 115 114 114 114 111 107 103 97 92
149 154 159 166 173 171 166 162 158 156 157 154 150 150 149 153 155 156 158 161 165 166 165 163 164 163 160 161 160 156 153 153 151 152 154 154 155 150 144 138 136 136 136 133 129 126 119 113 113 112 111 115 117 115 114 110 108 103 104 112 112 111 108 105 104 104 107 106 122 133 121 117 113 113 115 116 118 117 117 116 111 109 105 95 87
147 160 162 166 174 173 171 166 160 158 158 154 151 148 144 145 144 145 147 150 155 155 154 154 154 157 160 165 166 162 160 159 158 158 158 160 161 156 151 144 142 143 143 139 134 129 121 116 116 117 116 119 121 121 119 115 112 105 103 107 108 110 104 99 100 102 102 103 139 141 123 122 118 118 120 118 119 118 118 117 113 109 105 95 88
149 163 164 162 171 173 175 171 163 160 157 156 153 148 146 144 140 139 141 143 146 147 148 148 150 154 157 161 158 148 144 151 158 163 166 167 169 167 160 152 150 151 150 145 139 135 126 119 118 119 118 119 124 124 123 122 118 114 112 110 106 100 88 86 91 94 102 125 165 144 129 132 125 123 123 123 123 122 125 124 122 116 109 104 95
161 164 167 169 172 174 175 172 165 161 158 157 154 154 151 147 146 144 146 148 150 152 151 149 151 150 150 148 135 116 108 111 126 159 173 177 182 182 175 166 160 158 158 152 146 143 134 127 123 121 118 117 121 123 126 125 122 121 120 119 115 102 86 88 103 109 135 164 160 139 141 140 129 131 131 131 134 135 136 131 134 136 130 118 103
181 180 182 182 180 178 172 166 166 166 162 157 157 159 156 153 152 151 156 157 157 158 156 155 154 150 149 142 129 128 132 78 79 119 195 194 196 196 193 186 174 168 165 160 155 150 146 139 129 125 120 114 116 120 123 124 126 125 125 128 119 106 99 100 100 99 132 172 144 138 144 135 127 130 131 133 137 141 140 138 142 141 141 132 114
189 188 189 189 185 181 175 170 171 174 169 163 165 168 165 162 160 163 166 164 165 164 161 158 152 151 150 142 140 159 175 179 173 169 283 232 214 211 208 204 193 182 174 169 164 159 154 147 138 130 124 119 116 114 116 122 126 124 127 123 107 106 112 105 99 100 127 171 140 143 143 135 132 129 135 143 149 153 148 149 152 146 145 139 122
188 187 186 189 184 178 179 179 177 179 179 173 175 181 176 171 176 186 181 174 176 175 175 175 165 157 157 155 159 173 181 184 183 177 201 231 239 230 221 216 210 200 187 178 172 169 159 152 146 137 137 133 117 103 105 114 123 127 117 101 99 122 112 100 103 115 174 185 146 153 154 148 142 141 155 162 168 165 164 167 167 162 155 150 133
183 186 181 182 178 178 179 183 183 182 185 180 182 189 183 180 192 204 202 190 188 189 192 195 183 173 179 178 171 179 188 187 188 187 188 211 233 235 231 222 221 214 201 190 181 179 169 162 154 152 156 138 120 113 114 115 129 134 107 92 125 125 100 99 107 118 195 187 154 166 164 166 164 165 174 179 184 174 180 181 173 176 165 156 128
181 186 174 173 175 180 177 184 186 183 189 181 178 189 188 194 199 203 207 203 204 201 199 204 192 185 198 195 181 186 190 193 208 206 192 200 213 224 231 222 220 217 209 194 185 191 182 176 169 169 165 140 144 162 165 153 141 131 115 137 144 112 103 126 118 132 203 182 165 180 176 184 185 190 194 196 197 185 192 185 169 172 148 130 110
173 163 159 169 173 175 175 187 188 188 191 176 174 190 192 200 202 200 205 207 218 216 206 212 201 190 203 205 199 198 194 206 223 216 206 211 209 208 217 212 215 213 201 183 182 199 190 183 184 180 174 162 174 178 173 171 153 139 139 146 132 112 130 134 121 151 227 194 173 195 195 196 205 211 211 208 203 191 186 166 146 138 120 110 98
117 134 146 162 166 162 165 183 190 190 185 171 175 191 195 203 205 202 206 208 224 233 218 215 212 200 207 212 213 209 206 214 220 217 212 215 210 208 206 194 202 204 178 173 184 197 191 188 190 184 188 187 185 185 180 172 159 158 159 149 138 140 143 132 132 135 263 220 180 199 211 204 212 217 215 208 194 177 161 140 130 120 115 104 93
97 133 135 118 131 138 144 162 173 173 169 173 184 192 196 202 208 212 220 218 219 232 226 221 231 223 208 215 222 217 218 220 221 221 210 209 208 211 212 191 187 194 175 176 189 197 196 193 194 193 195 195 189 185 184 180 168 164 171 166 158 157 151 150 156 153 211 236 191 196 216 213 211 210 201 193 178 164 153 141 132 123 113 98 87
96 77 96 108 123 117 124 137 145 160 165 177 192 196 199 204 215 222 230 234 228 225 228 234 241 236 217 223 225 217 222 225 225 226 213 216 213 206 218 202 183 193 187 184 192 201 205 195 193 198 196 195 192 187 186 186 178 172 178 177 171 169 169 166 167 169 173 228 242 222 226 225 208 201 189 180 172 163 155 146 139 129 114 96 84
91 90 100 129 153 125 149 160 156 174 173 172 186 194 196 207 223 225 225 237 245 235 235 245 239 236 243 246 237 215 213 221 221 222 217 222 222 215 226 216 189 194 195 193 197 202 211 205 198 196 194 197 195 195 192 186 183 183 186 186 184 179 181 172 163 177 169 220 255 247 230 231 208 199 188 176 170 166 159 151 147 135 120 102 87
95 130 126 146 155 139 164 174 182 187 181 170 181 202 200 202 217 226 227 227 236 235 237 251 248 249 253 255 252 227 202 225 227 225 224 225 230 232 237 230 202 196 197 198 202 202 210 215 206 196 194 197 196 203 201 190 188 191 194 191 191 184 185 179 168 188 179 206 262 253 211 211 208 204 193 182 174 170 165 157 155 141 125 108 94
79 131 143 156 155 165 167 172 198 189 193 194 181 215 216 202 212 225 239 236 232 231 227 232 238 249 257 259 263 255 234 238 234 228 230 235 244 244 239 233 212 204 204 200 205 202 204 216 213 201 198 198 198 208 205 193 191 195 200 193 195 198 194 193 180 188 190 194 249 261 212 197 201 218 211 194 181 175 171 164 160 148 135 123 107
78 134 147 145 152 176 179 177 202 197 209 238 201 211 231 245 254 260 259 252 251 254 241 216 229 247 259 259 264 278 276 249 241 238 234 240 251 252 248 238 211 205 209 203 208 207 201 211 218 212 207 206 207 215 211 200 196 197 203 200 201 205 203 203 188 185 195 193 198 213 225 210 195 210 216 206 195 192 195 185 175 168 162 149 142
103 138 147 146 153 163 183 187 199 205 209 237 236 220 223 248 271 272 255 253 261 266 247 226 240 249 249 254 257 267 269 255 250 248 239 236 242 250 256 251 224 212 213 206 209 212 208 209 218 220 214 213 214 219 217 210 209 202 201 204 204 208 205 203 195 193 198 198 194 192 205 219 211 200 205 212 213 222 228 213 199 198 197 187 190
114 126 139 147 155 159 181 192 196 214 215 223 237 240 227 215 236 252 256 265 273 272 264 255 259 260 255 264 266 263 259 246 236 233 236 236 236 246 256 257 251 239 225 215 213 214 215 212 212 216 215 214 214 217 217 214 214 205 202 204 202 207 202 196 199 199 201 202 199 197 196 213 226 213 209 216 221 235 240 230 222 216 211 206 203
120 119 126 137 161 179 184 190 194 206 230 239 235 244 255 247 253 265 273 280 283 282 280 277 277 275 268 267 270 273 267 251 234 230 240 243 239 247 255 258 259 254 242 232 226 219 218 219 216 215 217 217 213 215 215 213 213 209 209 207 201 205 198 200 205 196 209 208 198 204 199 204 224 224 224 225 222 231 237 234 234 225 215 210 203
117 122 134 135 161 187 184 190 197 201 218 230 238 251 264 267 268 275 280 283 286 285 283 283 283 280 276 274 274 275 272 266 257 244 247 251 248 248 252 256 258 255 250 245 237 231 228 227 223 220 219 220 218 218 216 213 214 213 213 209 204 204 197 204 207 195 208 211 199 210 205 200 219 225 227 229 227 229 229 228 230 225 216 214 208
122 141 153 143 168 188 202 211 202 210 221 221 230 240 249 260 270 277 281 283 285 284 282 283 283 279 276 277 278 276 271 267 264 254 251 259 260 254 250 255 260 256 250 247 244 244 242 235 230 227 220 220 222 222 219 213 213 214 212 214 213 208 206 211 211 206 208 204 206 215 208 204 214 220 221 223 229 231 222 218 220 223 218 215 214
105 131 139 142 174 175 221 235 220 233 256 255 254 251 249 255 261 268 274 276 279 281 282 281 281 282 281 280 281 279 275 269 266 262 262 265 266 261 254 253 258 257 250 246 247 246 241 237 237 233 222 219 220 223 224 217 213 213 210 217 220 216 221 225 222 221 212 200 210 216 213 216 215 213 221 227 228 225 219 212 211 215 213 212 211
64 83 101 104 130 142 190 230 229 231 245 260 270 269 263 262 259 265 269 271 275 276 277 279 279 282 282 281 281 280 277 275 272 268 269 268 265 263 262 257 255 255 252 248 247 244 240 237 237 233 228 229 225 222 225 222 219 214 206 217 224 221 230 238 238 233 218 205 212 215 214 220 218 214 218 224 228 227 221 209 208 210 204 205 201
62 74 75 67 91 100 96 285 220 209 224 244 256 257 260 263 263 268 271 272 274 274 277 281 280 280 280 280 277 277 277 273 269 266 267 268 265 263 263 263 258 255 255 251 248 247 246 244 240 237 238 238 232 225 221 222 223 215 206 220 226 218 224 236 238 237 229 219 217 215 214 215 214 215 212 209 216 222 218 201 204 213 202 203 196
81 83 59 44 71 63 19 4 25 65 168 244 260 260 264 266 265 268 270 273 276 277 279 280 280 277 274 277 276 274 275 273 270 268 266 264 264 264 261 261 261 260 258 253 250 250 249 246 244 242 241 237 236 231 221 218 220 219 217 226 229 224 231 237 236 237 235 225 220 214 212 212 209 210 209 211 210 207 210 201 198 201 198 205 199
107 107 99 74 68 58 33 20 22 34 55 87 283 279 281 272 264 260 260 264 268 271 267 266 274 274 270 272 274 272 271 270 271 271 269 264 263 266 264 260 260 261 259 255 254 252 249 245 244 244 241 235 234 233 224 213 214 219 221 227 229 229 237 241 239 241 234 221 220 217 216 216 211 209 207 213 209 194 199 201 197 199 196 202 204
117 114 114 104 89 65 42 25 18 22 23 29 359 308 295 272 256 248 248 248 249 256 259 261 268 271 269 270 272 272 268 266 267 270 270 267 266 268 267 263 261 261 259 258 256 252 249 245 242 242 240 237 236 236 230 221 220 222 218 220 224 223 232 241 242 244 235 220 220 223 222 219 209 206 206 209 207 195 196 196 199 202 197 200 201
117 112 113 113 103 74 27 353 350 352 338 339 337 313 299 283 264 253 251 247 242 248 259 269 271 269 269 270 272 274 271 270 270 272 273 272 271 268 265 263 260 259 258 259 256 250 249 248 245 242 241 243 240 236 232 229 231 231 221 214 216 219 229 236 237 240 236 225 222 223 224 222 210 204 207 205 198 195 198 198 200 201 197 198 190
102 96 87 80 68 33 332 322 329 325 316 315 312 305 300 287 266 255 257 254 250 251 258 268 268 268 274 273 271 271 271 274 277 275 269 267 267 265 263 261 257 257 257 257 255 249 247 248 248 244 243 244 239 233 231 230 230 229 224 219 221 227 228 228 231 237 238 231 227 227 226 225 216 207 207 202 198 199 195 195 201 199 196 193 179
77 66 48 37 23 4 345 333 321 306 302 286 275 288 294 281 265 257 258 259 259 257 256 263 264 263 271 273 268 267 266 269 272 269 266 265 264 261 261 261 258 256 255 253 251 248 247 248 248 246 244 241 235 233 233 229 225 225 225 226 231 238 238 240 243 237 238 235 231 229 225 225 219 209 206 201 203 208 197 193 201 198 196 193 183
71 64 48 33 22 12 351 325 292 284 290 274 248 252 268 274 276 274 267 263 262 260 257 264 272 270 269 268 265 263 262 263 265 267 270 270 262 256 258 260 258 255 255 254 252 249 247 247 246 243 242 239 234 233 233 231 230 229 229 227 232 240 240 241 242 232 237 241 233 226 223 225 221 212 209 202 202 212 208 201 198 196 197 194 187
62 51 30 12 1 343 298 283 267 269 284 284 259 228 223 243 266 276 275 271 268 268 266 264 270 272 270 266 263 264 263 263 264 266 268 267 259 254 255 256 254 252 254 254 251 248 247 245 240 234 235 236 233 231 233 236 234 231 232 230 233 239 234 228 226 227 234 236 232 225 215 213 215 212 209 203 199 210 216 209 195 194 198 189 182
35 26 15 11 10 8 353 335 307 292 293 288 268 240 225 238 259 266 273 279 276 270 268 264 262 264 267 266 264 266 263 259 261 262 263 262 258 257 255 253 251 250 251 248 245 246 247 244 234 228 230 230 229 229 234 237 233 231 235 234 232 233 229 223 225 231 232 232 234 230 214 208 212 210 207 205 203 206 212 210 195 194 199 188 179
29 24 21 23 21 19 11 5 360 351 340 324 296 267 260 273 272 262 261 273 280 277 273 270 267 264 266 268 266 266 264 259 257 257 260 261 257 257 255 252 250 250 249 245 242 242 242 238 231 228 227 225 225 227 228 227 226 227 230 227 223 226 228 229 233 234 232 232 234 232 220 211 212 212 208 206 207 207 206 205 200 197 200 189 179